ARIANE 3 DEB (SYLDA)

基本信息
目录编号:
15166
目录名称:
ARIANE 3 DEB (SYLDA)
国际标识:
1984-081D
轨道中心:
EARTH
物体状态:
在轨
发射日期:
1984-08-04 UTC
轨道信息
数据来源: 国际轨道数据
星历时间: 2026-07-13T20:12:56+0800
半长轴: 23375.215km
偏心率: 0.7006995
轨道倾角: 6.634°
近地点辐角: 183.098°
升交点赤经: 236.564°
平近点角: 167.366°
近地点: 618.076km
远地点: 33376.08km
周期: 592.779分钟
每日圈数: 2.429234
详细信息
发射场:
FRGUI
轨道高度:
LEO
数据来源:
AOE Integration Group
参考系:
TEME
时间系统:
UTC
历元类型:
SGP4
2D轨道图
3D轨道图
轨道高度分析图
轨道倾角分析图
轨道综合分析图
查看轨道综合分析图